Location: Lane
(33.5226°N, 79.8788°W)
Time: 17:08:39
(UTC+00:00)

Transit 2A - Pass Details

Date: 05 October 2022
Orbit: 598 x 959 km, 66.7° (Epoch: 06 December)

Event Time Altitude Azimuth Distance (km) Brightness Sun altitude
Rises 04:24:45 0° 243° (WSW) 2,931 - -59.5°
Reaches altitude 10° 04:27:46 10° 264° (W) 1,982 - -59.7°
Maximum altitude 04:30:41 17° 305° (NW) 1,541 - -59.9°
Drops below altitude 10° 04:33:34 10° 347° (NNW) 1,941 - -60.1°
Sets 04:36:29 0° 8° (N) 2,845 - -60.3°
